Regional Weather Roundup
Issued by NWS

Home | Current Version | Previous Version | Text Only | Print | Product List | Glossary On
Versions: 1 2 3 4 5 6 7 8 9 10 11 12 13 14 15 16 17 18 19 20 21 22 23 24 25 26 27 28 29 30 31 32 33 34 35 36 37 38 39 40 41 42 43 44 45 46 47 48 49 50
000
ASUS46 KLOX 280613
RWRCA

SOUTHERN CALIFORNIA WEATHER ROUNDUP
NATIONAL WEATHER SERVICE OXNARD CALIFORNIA
1100 PM PDT THU AUG 27 2015

NOTE: "FAIR" INDICATES FEW OR NO CLOUDS BELOW 12,000 FEET WITH NO
SIGNIFICANT WEATHER AND/OR OBSTRUCTIONS TO VISIBILITY.

  -  STATIONS PRECEEDED BY AN ASTERISK (*) ARE NOT NWS OR FAA
     STATIONS AND ARE NOT SUBJECT TO NWS AND FAA QUALITY CONTROL.

CAZ041-042-087-280700-
LA AND ORANGE COUNTY COASTAL AREAS


CITY           SKY/WX    TMP DP  RH WIND       PRES   REMARKS
L.A. DOWNTOWN  CLEAR     76  64  66 CALM      29.90F
L.A. AIRPORT   CLEAR     76  65  68 VRB3      29.91F
LONG BEACH     CLEAR     76  70  82 SE7       29.91S

CITY           SKY/WX    TMP DP  RH WIND       PRES   REMARKS
AVALON           N/A     68 N/A N/A S2          N/A
FULLERTON      CLEAR     77  66  68 S3        29.91S
HAWTHORNE      CLEAR     78  66  66 CALM      29.91S
*LEO CARRILLO    N/A     70  64  81 N5          N/A
*LOS ALAMITOS  FAIR      73  70  91 S2        29.91S
*REDONDO BEACH   N/A     73  66  79 CALM      29.91S
SANTA ANA      CLEAR     76  63  64 CALM      29.91S
STA MONICA APT CLEAR     74  67  78 CALM      29.92S
*UCLA            N/A     72  64  78 CALM      29.89S

$$

CAZ547-548-048-280700-
LA COUNTY VALLEYS AND INLAND EMPIRE


CITY           SKY/WX    TMP DP  RH WIND       PRES   REMARKS
BURBANK        CLEAR     79  61  53 E5        29.93S
VAN NUYS       CLEAR     79  62  56 E5        29.93R

CITY           SKY/WX    TMP DP  RH WIND       PRES   REMARKS
CORONA AIRPORT CLEAR     74  58  57 CALM      29.94S
*CHATSWORTH      N/A     80  61  52 E2        29.90S
CHINO          CLEAR     77  58  51 W3        29.95S
*CLAREMONT       N/A     75  53  46 CALM        N/A
MARCH AFB      CLEAR     78  54  42 CALM      29.98S
*NORTHRIDGE      N/A     79  57  47 NE2         N/A
ONTARIO        CLEAR     82  53  36 NW6       29.94F
*PASADENA        N/A     79  63  57 E1          N/A
RIVERSIDE      CLEAR     82  56  40 W5        29.94F
SAN BERNARDINO NOT AVBL
*SAN GABRIEL     N/A     80  63  55 CALM      29.97S
*SAN RAFAEL HI   N/A     77  52  41 SW7         N/A
*SAUGUS          N/A     84  51  31 N2          N/A
*WHITEMAN AP   NOT AVBL
*WHITTIER HILL   N/A     74  62  66 SE5         N/A
*WOODLAND HILL   N/A     77  59  53 NE1         N/A

$$

CAZ054-055-280700-
LA AND SAN BERNARDINO COUNTY MOUNTAINS


CITY           SKY/WX    TMP DP  RH WIND       PRES   REMARKS
*ACTON           N/A     78  46  31 N2          N/A
*BIG BEAR AIRP CLEAR     55  41  58 CALM      30.37S
*BIG PINES       N/A     65  44  47 CALM        N/A
*CHILAO          N/A     74  34  22 N3          N/A
SANDBERG       CLEAR     77  37  23 NW13      30.20F

$$

CAZ028-029-059-060-099-280700-
ANTELOPE VALLEY AND SURROUNDING AREAS


CITY           SKY/WX    TMP DP  RH WIND       PRES   REMARKS
LANCASTER      CLEAR     82  40  22 W9        30.02S
PALMDALE       CLEAR     81  39  22 S6        30.04S
*POPPY PARK      N/A     84  40  21 W14         N/A

CITY           SKY/WX    TMP DP  RH WIND       PRES   REMARKS
29 PALMS       PTCLDY    92  50  23 SW10      30.02F
BARSTOW/DAGGET CLEAR     91  34  13 W6        29.96R
BISHOP         PTCLDY    74  36  25 NE6       30.11R
CHINA LAKE     CLEAR     84  36  18 S7        29.97R
EDWARDS AFB    CLEAR     81  38  21 SW12      29.99S
MOJAVE         CLEAR     84  41  21 NW18G25   30.02S
NEEDLES        PTCLDY    98  59  27 CALM      29.87F HX  98
VICTORVILLE    CLEAR     82  45  26 CALM      30.06S

$$

CAZ039-040-280700-
VENTURA AND SANTA BARBARA COUNTY COAST


CITY           SKY/WX    TMP DP  RH WIND       PRES   REMARKS
CAMARILLO      CLEAR     76  60  57 CALM      29.89S
NWS OXNARD       N/A     73  63  71 CALM      29.88S
OXNARD AIRPORT CLEAR     72  67  84 CALM      29.88F
*POINT MUGU    CLEAR     73  66  78 VRB3      29.89S
SBA APT/GOLETA CLEAR     70  66  87 CALM      29.87S
*SANTA BARBARA   N/A     73  65  77 CALM      29.95S
*VENTURA         N/A     72  59  62 CALM      29.50S

$$

CAZ044-045-280700-
VENTURA COUNTY VALLEYS


CITY           SKY/WX    TMP DP  RH WIND       PRES   REMARKS
*SIMI VALLEY     N/A     75  60  60 CALM      29.83S
*OJAI            N/A     69  57  66 CALM      29.83S
*FILLMORE        N/A     72  60  66 CALM      29.80S

$$

CAZ053-280700-
VENTURA COUNTY MOUNTAINS


CITY           SKY/WX    TMP DP  RH WIND       PRES   REMARKS
*LOCKWOOD VLY    N/A     59  32  36 CALM        N/A
*ROSE VALLEY     N/A     64  41  42 MISG        N/A

$$

CAZ034-035-036-280700-
CENTRAL COAST AND SANTA YNEZ VALLEY


CITY           SKY/WX    TMP DP  RH WIND       PRES   REMARKS
SAN LUIS OBISP CLEAR     68  53  58 NW6       29.92S
SANTA MARIA    CLEAR     69  53  56 W9        29.94R

CITY           SKY/WX    TMP DP  RH WIND       PRES   REMARKS
*CAL POLY SLO    N/A     70  55  60 CALM        N/A
*LOMPOC        CLEAR     64  50  59 CALM      29.95S
*PISMO BEACH     N/A     67  60  78 CALM      29.93R
*SANTA YNEZ    FAIR      68  50  52 CALM      29.95S

$$

CAZ037-038-051-280700-
SAN LUIS OBISPO COUNTY INTERIOR AND CUYAMA VALLEY


CITY           SKY/WX    TMP DP  RH WIND       PRES   REMARKS
*CUYAMA          N/A     76  46  33 E1        29.90S
PASO ROBLES    CLEAR     78  44  29 NW8       29.96S

$$

CAZ032-033-061-280700-
SOUTHERN DESERTS


CITY           SKY/WX    TMP DP  RH WIND       PRES   REMARKS
BLYTHE         CLEAR     96  66  37 S3        29.83F HX  99
IMPERIAL       CLEAR     98  54  22 SW8       29.79S HX  96
PALM SPRINGS   CLEAR     98  56  24 NW13      29.86S HX  96
THERMAL        CLEAR     94  57  28 W5        29.77F HX  92

$$

ELSEWHERE ACROSS THE WESTERN UNITED STATES AND MEXICO


CITY           SKY/WX    TMP DP  RH WIND       PRES   REMARKS
DEATH VALLEY,    N/A    105  44  12 E7          N/A  HX 101
DENVER, CO     MOCLDY    65  56  72 SW7       30.17F
GRAND CANYON,  PTCLDY    55  45  68 CALM      30.35S
HONOLULU, HI   PTCLDY    81  73  78 CALM      29.87R
KAHULUI, MAUI  PTCLDY    82  72  69 NE9       29.87R
LAKE TAHOE, CA PTCLDY    58  39  49 CALM      30.34S
LAS VEGAS, NV  PTCLDY    92  50  23 SW3       29.94S
MAMMOTH LAKES, FAIR      57  32  38 CALM      30.38R
MEXICO CITY, M LGT RAIN  61  52  72 NW12      30.41R
PHOENIX, AZ    MOCLDY    86  74  67 E5        29.92R HX  94
PORTLAND, OR   CLOUDY    76  52  43 W7        29.98R
RENO, NV       MOCLDY    77  42  28 W10       30.19S
SALT LAKE CITY PTCLDY    75  44  33 S10       30.16S
SAN DIEGO, CA  CLEAR     77  66  68 SW3       29.92F
SAN FRANCISCO, PTCLDY    68  53  58 W14       29.98S
SAN JOSE, CA   PTCLDY    73  53  49 CALM      29.98F
SEATTLE, WA    CLOUDY    73  47  39 SW8       29.99R
TIJUANA, MEX   CLEAR     75  61  60 N5        29.95F

$$

STATION/POSITION TIME  TEMP    WIND        PRES    VSBY  WAVE
                       AIR SEA DIR/SP/G                  HT/PER
                 (UTC) (F)     (DEG/KT/KT) (MB)    (MI)  (FT/S)
POINT ARGUELLO B NOT AVBL
WEST SANTA BARBA 0550   68 66  310/ 19/ 23 1011.1R         5/16
POINT CONCEPTION NOT AVBL
EAST SANTA BARBA 0600   71 71   40/  4/  6 1011.9R
SANTA MONICA BAY 0550   71 74  200/  6/  8 1012.1F         2/16



USA.gov is the U.S. government's official web portal to all federal, state and local government web resources and services.